Regional Weather Roundup
Issued by NWS

Home | Current Version | Previous Version | Graphics & Text | Print | Product List | Glossary On
Versions: 1 2 3 4 5 6 7 8 9 10 11 12 13 14 15 16 17 18 19 20 21 22 23 24 25 26 27 28 29 30 31 32 33 34 35 36 37 38 39 40 41 42 43 44 45 46 47 48 49
000
ASUS45 KSLC 102110
RWRUT

UTAH REGIONAL WEATHER ROUNDUP
NATIONAL WEATHER SERVICE SALT LAKE CITY UT
300 PM MDT THU JUL 10 2014

UTZ001>011-023>025-102200-

NORTHERN UTAH

CITY           SKY/WX    TMP DP  RH WIND       PRES   REMARKS
HILL AFB         N/A     85  53  32 VRB5      30.00F
LOGAN          SUNNY     86  53  32 SW7       29.98F
OGDEN            N/A     89  50  26 NW8       29.97F
PROVO AIRPORT  PTSUNNY   88  54  31 NW10      29.97F
SALT LAKE CITY   N/A     90  51  26 N7        29.94F
VERNAL         MOSUNNY   86  52  30 S10       30.00F
WENDOVER         N/A     91  46  21 SE10G16   29.93F
HEBER CITY       N/A     88  45  22 SW5       30.03F

$$

UTZ012>022-026-027-102200-

SOUTHERN UTAH

CITY           SKY/WX    TMP DP  RH WIND       PRES   REMARKS
BRYCE CANYON     N/A     71  49  45 W15       30.24F
CEDAR CITY       N/A     76  57  51 SW18G26   30.09S
MILFORD        PTSUNNY   72  60  66 NE17G26   30.01F
MOAB/CYNLANDS  MOSUNNY   91  52  26 N12       29.95F
PRICE          LGT RAIN  71  58  63 NW10      30.08F
ST GEORGE      NOT AVBL

$$

REGIONAL REPORTS     COLORADO/ARIZONA

CITY           SKY/WX    TMP DP  RH WIND       PRES   REMARKS
CRAIG, CO      MOSUNNY   81  49  32 W7        30.10F
GRAND JUNCTION MOSUNNY   91  50  24 W10       29.99F
RIFLE          PTSUNNY   85  47  26 NE6       30.04F
MONTROSE       MOSUNNY   90  46  21 W7        30.06F
CORTEZ         SUNNY     85  49  28 CALM      30.10F
PAGE, AZ         N/A     91  50  24 VRB6      29.97F
GRAND CANYON     N/A     65  61  87 SW7       30.21S
KINGMAN        PTSUNNY   82  63  52 E12       30.00F
FLAGSTAFF        N/A     76  53  44 SW15      30.22F

$$

REGIONAL REPORTS    NEVADA/IDAHO/WYOMING

CITY           SKY/WX    TMP DP  RH WIND       PRES   REMARKS
LAS VEGAS, NV  PTSUNNY   91  55  29 E7        29.85F
ELY              N/A     79  44  28 MISG      30.13S
ELKO           PTSUNNY   88  46  23 NE13      29.99F
POCATELLO, ID  MOSUNNY   91  43  18 W14       29.98F
BURLEY           N/A     87  45  23 W10       29.94F
EVANSTON, WY   PTSUNNY   79  51  37 W15G21    30.16F
ROCK SPRINGS   MOSUNNY   83  44  25 W15G23    30.12F

$$


USA.gov is the U.S. government's official web portal to all federal, state and local government web resources and services.